TimeCDT,TemperatureF,Dew PointF,Humidity,Sea Level PressureIn,VisibilityMPH,Wind Direction,Wind SpeedMPH,Gust SpeedMPH,PrecipitationIn,Events,Conditions,WindDirDegrees,DateUTC
12:15 AM,75.2,71.6,89,30.22,10.0,South,3.5,-,N/A,,Clear,190,2013-07-18 05:15:00
12:35 AM,73.4,71.6,94,30.22,10.0,South,4.6,-,N/A,,Clear,190,2013-07-18 05:35:00
12:55 AM,73.4,69.8,88,30.22,10.0,South,3.5,-,N/A,,Clear,190,2013-07-18 05:55:00
1:15 AM,73.4,71.6,94,30.21,10.0,SSW,4.6,-,N/A,,Clear,210,2013-07-18 06:15:00
1:35 AM,75.2,71.6,89,30.21,10.0,SSW,3.5,-,N/A,,Clear,200,2013-07-18 06:35:00
1:55 AM,73.4,69.8,88,30.21,10.0,Calm,Calm,-,N/A,,Clear,0,2013-07-18 06:55:00
2:15 AM,73.4,69.8,88,30.20,10.0,SSW,3.5,-,N/A,,Clear,210,2013-07-18 07:15:00
2:35 AM,73.4,69.8,88,30.20,10.0,Calm,Calm,-,N/A,,Clear,0,2013-07-18 07:35:00
2:55 AM,71.6,69.8,94,30.20,10.0,Calm,Calm,-,N/A,,Clear,0,2013-07-18 07:55:00
3:15 AM,73.4,69.8,88,30.20,10.0,Calm,Calm,-,N/A,,Clear,0,2013-07-18 08:15:00
3:35 AM,73.4,69.8,88,30.19,10.0,Calm,Calm,-,N/A,,Clear,0,2013-07-18 08:35:00
3:55 AM,71.6,69.8,94,30.19,10.0,Calm,Calm,-,N/A,,Clear,0,2013-07-18 08:55:00
4:15 AM,71.6,69.8,94,30.18,10.0,Calm,Calm,-,N/A,,Clear,0,2013-07-18 09:15:00
4:35 AM,69.8,68.0,94,30.18,10.0,Calm,Calm,-,N/A,,Clear,0,2013-07-18 09:35:00
4:55 AM,69.8,68.0,94,30.18,10.0,Calm,Calm,-,N/A,,Clear,0,2013-07-18 09:55:00
5:15 AM,69.8,66.2,88,30.18,10.0,Calm,Calm,-,N/A,,Clear,0,2013-07-18 10:15:00
5:35 AM,69.8,66.2,88,30.18,10.0,Calm,Calm,-,N/A,,Clear,0,2013-07-18 10:35:00
5:55 AM,69.8,68.0,94,30.18,10.0,Calm,Calm,-,N/A,,Clear,0,2013-07-18 10:55:00
6:15 AM,69.8,66.2,88,30.17,10.0,Calm,Calm,-,N/A,,Clear,0,2013-07-18 11:15:00
6:35 AM,71.6,69.8,94,30.17,10.0,Calm,Calm,-,N/A,,Clear,0,2013-07-18 11:35:00
6:55 AM,73.4,69.8,88,30.18,10.0,Calm,Calm,-,N/A,,Clear,0,2013-07-18 11:55:00
7:15 AM,75.2,71.6,89,30.18,10.0,Calm,Calm,-,N/A,,Clear,0,2013-07-18 12:15:00
7:35 AM,77.0,71.6,83,30.17,10.0,Calm,Calm,-,N/A,,Clear,0,2013-07-18 12:35:00
7:55 AM,80.6,71.6,74,30.17,10.0,SW,3.5,-,N/A,,Clear,230,2013-07-18 12:55:00
8:15 AM,80.6,71.6,74,30.17,10.0,SW,5.8,-,N/A,,Clear,220,2013-07-18 13:15:00
8:35 AM,82.4,71.6,70,30.17,10.0,WSW,6.9,-,N/A,,Clear,250,2013-07-18 13:35:00
8:55 AM,84.2,71.6,66,30.17,10.0,SW,5.8,-,N/A,,Clear,230,2013-07-18 13:55:00
9:15 AM,84.2,71.6,66,30.17,10.0,SW,5.8,-,N/A,,Clear,230,2013-07-18 14:15:00
9:35 AM,86.0,71.6,62,30.16,10.0,West,8.1,-,N/A,,Clear,260,2013-07-18 14:35:00
9:55 AM,87.8,71.6,58,30.16,10.0,WSW,6.9,-,N/A,,Clear,240,2013-07-18 14:55:00
10:15 AM,87.8,73.4,62,30.15,10.0,SW,8.1,-,N/A,,Clear,230,2013-07-18 15:15:00
10:35 AM,89.6,71.6,55,30.15,10.0,SW,9.2,-,N/A,,Clear,230,2013-07-18 15:35:00
10:55 AM,89.6,71.6,55,30.15,10.0,SW,8.1,-,N/A,,Clear,220,2013-07-18 15:55:00
11:15 AM,89.6,71.6,55,30.14,10.0,SW,6.9,-,N/A,,Clear,230,2013-07-18 16:15:00
11:35 AM,91.4,71.6,52,30.14,10.0,WSW,9.2,-,N/A,,Clear,250,2013-07-18 16:35:00
11:55 AM,91.4,71.6,52,30.13,10.0,WSW,5.8,-,N/A,,Clear,240,2013-07-18 16:55:00
12:15 PM,91.4,69.8,49,30.13,10.0,SW,6.9,-,N/A,,Clear,230,2013-07-18 17:15:00
12:35 PM,91.4,69.8,49,30.12,10.0,SW,5.8,-,N/A,,Scattered Clouds,230,2013-07-18 17:35:00
12:55 PM,91.4,69.8,49,30.12,10.0,SW,5.8,-,N/A,,Scattered Clouds,230,2013-07-18 17:55:00
1:15 PM,91.4,69.8,49,30.11,10.0,WSW,9.2,-,N/A,,Scattered Clouds,240,2013-07-18 18:15:00
1:35 PM,91.4,68.0,46,30.10,10.0,SSW,8.1,16.1,N/A,,Scattered Clouds,210,2013-07-18 18:35:00
1:55 PM,93.2,69.8,46,30.09,10.0,SSW,5.8,-,N/A,,Scattered Clouds,200,2013-07-18 18:55:00
2:15 PM,93.2,69.8,46,30.08,10.0,SW,9.2,-,N/A,,Scattered Clouds,220,2013-07-18 19:15:00
2:35 PM,93.2,68.0,44,30.08,10.0,SW,10.4,-,N/A,,Scattered Clouds,220,2013-07-18 19:35:00
2:55 PM,93.2,69.8,46,30.07,10.0,SW,10.4,18.4,N/A,,Scattered Clouds,230,2013-07-18 19:55:00
3:15 PM,93.2,68.0,44,30.06,10.0,WSW,6.9,-,N/A,,Clear,240,2013-07-18 20:15:00
3:35 PM,93.2,69.8,46,30.05,10.0,SW,8.1,-,N/A,,Clear,230,2013-07-18 20:35:00
3:55 PM,93.2,68.0,44,30.05,10.0,SSW,6.9,-,N/A,,Scattered Clouds,210,2013-07-18 20:55:00
4:15 PM,93.2,69.8,46,30.04,10.0,SSW,8.1,-,N/A,,Clear,210,2013-07-18 21:15:00
5:15 PM,93.2,68.0,44,30.02,10.0,SSW,9.2,-,N/A,,Scattered Clouds,210,2013-07-18 22:15:00
5:35 PM,91.4,68.0,46,30.01,10.0,SW,8.1,-,N/A,,Clear,220,2013-07-18 22:35:00
5:55 PM,91.4,68.0,46,30.00,10.0,SW,8.1,-,N/A,,Clear,220,2013-07-18 22:55:00
6:15 PM,91.4,69.8,49,30.00,10.0,SW,6.9,-,N/A,,Clear,230,2013-07-18 23:15:00
6:35 PM,91.4,69.8,49,30.00,10.0,SW,6.9,-,N/A,,Clear,230,2013-07-18 23:35:00
6:55 PM,89.6,69.8,52,30.00,10.0,SW,5.8,-,N/A,,Clear,220,2013-07-18 23:55:00
7:15 PM,89.6,69.8,52,30.00,10.0,SSW,4.6,-,N/A,,Clear,210,2013-07-19 00:15:00
7:35 PM,87.8,71.6,58,29.99,10.0,SW,4.6,-,N/A,,Clear,220,2013-07-19 00:35:00
7:55 PM,86.0,71.6,62,29.99,10.0,SSW,4.6,-,N/A,,Clear,210,2013-07-19 00:55:00
8:15 PM,84.2,71.6,66,29.99,10.0,SSW,4.6,-,N/A,,Clear,200,2013-07-19 01:15:00
8:35 PM,82.4,71.6,70,29.99,10.0,SSW,5.8,-,N/A,,Clear,200,2013-07-19 01:35:00
8:55 PM,78.8,71.6,78,29.99,10.0,South,5.8,-,N/A,,Clear,190,2013-07-19 01:55:00
9:15 PM,78.8,71.6,78,29.99,10.0,South,5.8,-,N/A,,Clear,190,2013-07-19 02:15:00
9:35 PM,77.0,71.6,83,29.99,10.0,South,6.9,-,N/A,,Clear,190,2013-07-19 02:35:00
9:55 PM,77.0,71.6,83,29.99,10.0,South,5.8,-,N/A,,Clear,190,2013-07-19 02:55:00
10:15 PM,75.2,71.6,89,29.99,10.0,South,5.8,-,N/A,,Clear,190,2013-07-19 03:15:00
10:35 PM,75.2,71.6,89,29.99,10.0,South,5.8,-,N/A,,Clear,190,2013-07-19 03:35:00
10:55 PM,75.2,69.8,83,29.98,10.0,South,5.8,-,N/A,,Clear,190,2013-07-19 03:55:00
11:15 PM,75.2,69.8,83,29.98,10.0,SSW,5.8,-,N/A,,Clear,200,2013-07-19 04:15:00
11:35 PM,75.2,69.8,83,29.98,10.0,SSW,6.9,-,N/A,,Clear,200,2013-07-19 04:35:00
11:55 PM,75.2,69.8,83,29.98,10.0,SSW,6.9,-,N/A,,Clear,200,2013-07-19 04:55:00